SBI5723 UNNT-ZBAD

Flight info

Callsign SBI5723
Flight time 3h 56m
Altitude 35000
Route OGATI A308 LEKOS P982 DARNO/K0817S1070 Y746 NIXAL G343 TMR/K0833S1100 W65 TUSLA/K0826S1070 W64 ELAPU
Aircraft A321/M-SDE3FGHIRWY/LB1

Departure

Time 2026-04-22 08:48
Airport Novosibirsk Tolmachevo Airport (UNNT)

Arrival

Time 2026-04-22 12:44
Airport Beijing Daxing International Airport (ZBAD)
Time Latitude Longitude Altitude Speed Heading
2026-04-22 07:39 55.01021 82.66934 373 ft 0 kts 171°
2026-04-22 08:34 55.01023 82.66934 373 ft 2 kts 171°
2026-04-22 08:34 55.01048 82.66930 373 ft 3 kts 171°
2026-04-22 08:35 55.01068 82.66925 373 ft 4 kts 198°
2026-04-22 08:35 55.01081 82.66948 373 ft 4 kts 262°
2026-04-22 08:35 55.01085 82.66992 373 ft 4 kts 261°
2026-04-22 08:35 55.01089 82.67038 373 ft 4 kts 261°
2026-04-22 08:36 55.01090 82.67050 373 ft 0 kts 261°
2026-04-22 08:38 55.01090 82.67049 373 ft 0 kts 261°
2026-04-22 08:38 55.01089 82.67038 373 ft 2 kts 261°
2026-04-22 08:38 55.01086 82.67009 373 ft 3 kts 261°
2026-04-22 08:39 55.01082 82.66959 373 ft 5 kts 261°
2026-04-22 08:39 55.01083 82.66895 373 ft 6 kts 291°
2026-04-22 08:39 55.01098 82.66822 373 ft 7 kts 277°
2026-04-22 08:39 55.01097 82.66731 373 ft 8 kts 263°
2026-04-22 08:40 55.01080 82.66630 373 ft 9 kts 247°
2026-04-22 08:40 55.01053 82.66520 373 ft 10 kts 247°
2026-04-22 08:40 55.01025 82.66397 373 ft 12 kts 250°
2026-04-22 08:40 55.00997 82.66261 373 ft 13 kts 250°
2026-04-22 08:41 55.00979 82.66172 373 ft 6 kts 246°
2026-04-22 08:41 55.00960 82.66110 373 ft 5 kts 243°
2026-04-22 08:41 55.00952 82.66046 373 ft 6 kts 262°
2026-04-22 08:41 55.00944 82.65947 373 ft 11 kts 261°
2026-04-22 08:42 55.00929 82.65779 373 ft 16 kts 261°
2026-04-22 08:42 55.00912 82.65592 373 ft 15 kts 261°
2026-04-22 08:42 55.00897 82.65423 373 ft 13 kts 261°
2026-04-22 08:42 55.00887 82.65308 373 ft 7 kts 263°
2026-04-22 08:43 55.00884 82.65230 373 ft 6 kts 268°
2026-04-22 08:43 55.00882 82.65170 373 ft 5 kts 266°
2026-04-22 08:43 55.00876 82.65092 373 ft 9 kts 261°
2026-04-22 08:43 55.00870 82.65024 373 ft 5 kts 267°
2026-04-22 08:44 55.00883 82.64925 373 ft 12 kts 282°
2026-04-22 08:44 55.00905 82.64744 373 ft 16 kts 282°
2026-04-22 08:44 55.00929 82.64564 373 ft 15 kts 283°
2026-04-22 08:44 55.00951 82.64398 373 ft 13 kts 282°
2026-04-22 08:45 55.00971 82.64251 373 ft 12 kts 288°
2026-04-22 08:45 55.00986 82.64123 373 ft 10 kts 282°
2026-04-22 08:45 55.00998 82.64038 373 ft 5 kts 286°
2026-04-22 08:45 55.01015 82.64013 374 ft 2 kts 334°
2026-04-22 08:46 55.01024 82.64009 374 ft 2 kts 345°
2026-04-22 08:46 55.01064 82.63996 375 ft 9 kts 350°
2026-04-22 08:46 55.01121 82.63981 375 ft 8 kts 351°
2026-04-22 08:46 55.01149 82.64001 374 ft 4 kts 75°
2026-04-22 08:47 55.01149 82.64011 374 ft 0 kts 82°
2026-04-22 08:47 55.01149 82.64012 374 ft 2 kts 82°
2026-04-22 08:47 55.01182 82.64379 373 ft 66 kts 81°
2026-04-22 08:47 55.01287 82.65541 373 ft 125 kts 81°
2026-04-22 08:48 55.01451 82.67305 377 ft 168 kts 81°
2026-04-22 08:48 55.01639 82.69319 969 ft 167 kts 79°
2026-04-22 08:48 55.01817 82.71311 1698 ft 166 kts 81°
2026-04-22 08:48 55.01995 82.73294 2346 ft 165 kts 83°
2026-04-22 08:49 55.02171 82.75273 3010 ft 165 kts 84°
2026-04-22 08:49 55.02346 82.77258 3580 ft 167 kts 85°
2026-04-22 08:49 55.02529 82.79356 3851 ft 186 kts 84°
2026-04-22 08:49 55.02734 82.81710 4043 ft 207 kts 85°
2026-04-22 08:50 55.02917 82.84329 4197 ft 229 kts 94°
2026-04-22 08:50 55.02573 82.87130 4647 ft 242 kts 117°
2026-04-22 08:50 55.01580 82.89582 5099 ft 256 kts 136°
2026-04-22 08:50 55.00292 82.91792 5740 ft 264 kts 138°
2026-04-22 08:51 54.99409 82.93293 5924 ft 268 kts 138°
2026-04-22 08:51 54.98191 82.95761 5999 ft 271 kts 124°
2026-04-22 08:51 54.97446 82.98791 6055 ft 278 kts 105°
2026-04-22 08:51 54.97276 83.02178 6712 ft 284 kts 92°
2026-04-22 08:52 54.97254 83.05641 7380 ft 289 kts 92°
2026-04-22 08:52 54.97226 83.09167 8049 ft 294 kts 92°
2026-04-22 08:52 54.97193 83.12751 8710 ft 298 kts 91°
2026-04-22 08:52 54.97158 83.16383 9389 ft 302 kts 91°
2026-04-22 08:53 54.97124 83.20073 10033 ft 306 kts 91°
2026-04-22 08:53 54.97047 83.23882 10278 ft 326 kts 96°
2026-04-22 08:53 54.96753 83.27929 10406 ft 347 kts 97°
2026-04-22 08:53 54.96436 83.32215 10530 ft 367 kts 97°
2026-04-22 08:54 54.96105 83.36698 10853 ft 379 kts 97°
2026-04-22 08:54 54.95771 83.41222 11360 ft 385 kts 98°
2026-04-22 08:54 54.95426 83.45859 11867 ft 390 kts 98°
2026-04-22 08:54 54.95072 83.50574 12402 ft 395 kts 98°
2026-04-22 08:55 54.94711 83.55352 12925 ft 400 kts 98°
2026-04-22 08:55 54.94344 83.60177 13433 ft 405 kts 98°
2026-04-22 08:55 54.93972 83.65053 13919 ft 410 kts 98°
2026-04-22 08:55 54.93594 83.69986 14380 ft 413 kts 98°
2026-04-22 08:56 54.93211 83.74967 14857 ft 416 kts 98°
2026-04-22 08:56 54.92823 83.79978 15334 ft 419 kts 98°
2026-04-22 08:56 54.92429 83.85018 15807 ft 422 kts 98°
2026-04-22 08:56 54.92031 83.90097 16268 ft 425 kts 98°
2026-04-22 08:57 54.91628 83.95202 16711 ft 428 kts 98°
2026-04-22 08:57 54.91220 84.00352 17145 ft 431 kts 98°
2026-04-22 08:57 54.90807 84.05529 17551 ft 434 kts 98°
2026-04-22 08:57 54.90393 84.10738 17951 ft 436 kts 98°
2026-04-22 08:58 54.89974 84.15974 18334 ft 439 kts 98°
2026-04-22 08:58 54.89547 84.21252 18686 ft 441 kts 98°
2026-04-22 08:58 54.89115 84.26551 19039 ft 443 kts 98°
2026-04-22 08:58 54.88686 84.31792 19394 ft 445 kts 98°
2026-04-22 08:59 54.88249 84.37118 19749 ft 447 kts 98°
2026-04-22 08:59 54.87807 84.42467 20116 ft 449 kts 98°
2026-04-22 08:59 54.87357 84.47859 20483 ft 451 kts 98°
2026-04-22 08:59 54.86905 84.53261 20855 ft 453 kts 98°
2026-04-22 09:00 54.86448 84.58686 21225 ft 455 kts 98°
2026-04-22 09:00 54.85986 84.64138 21594 ft 457 kts 98°
2026-04-22 09:00 54.85544 84.69623 21971 ft 460 kts 97°
2026-04-22 09:00 54.85191 84.75147 22340 ft 462 kts 95°
2026-04-22 09:01 54.84908 84.80719 22707 ft 464 kts 94°
2026-04-22 09:01 54.84660 84.86317 23063 ft 467 kts 94°
2026-04-22 09:01 54.84414 84.91941 23411 ft 469 kts 94°
2026-04-22 09:01 54.84150 84.97601 23718 ft 471 kts 94°
2026-04-22 09:02 54.83863 85.03278 24000 ft 474 kts 95°
2026-04-22 09:02 54.83561 85.08912 24272 ft 476 kts 95°
2026-04-22 09:02 54.83241 85.14643 24554 ft 478 kts 95°
2026-04-22 09:02 54.82912 85.20390 24832 ft 480 kts 95°
2026-04-22 09:03 54.82579 85.26168 25116 ft 483 kts 95°
2026-04-22 09:03 54.82247 85.31979 25397 ft 485 kts 95°
2026-04-22 09:03 54.81909 85.37807 25677 ft 487 kts 95°
2026-04-22 09:03 54.81561 85.43664 25961 ft 489 kts 95°
2026-04-22 09:04 54.81203 85.49538 26225 ft 491 kts 95°
2026-04-22 09:04 54.80835 85.55437 26497 ft 493 kts 95°
2026-04-22 09:04 54.80461 85.61360 26761 ft 495 kts 96°
2026-04-22 09:04 54.80085 85.67307 27013 ft 497 kts 95°
2026-04-22 09:05 54.79706 85.73268 27272 ft 499 kts 96°
2026-04-22 09:05 54.79323 85.79269 27503 ft 501 kts 96°
2026-04-22 09:05 54.78917 85.85281 27728 ft 503 kts 98°
2026-04-22 09:05 54.78162 85.91206 27936 ft 505 kts 107°
2026-04-22 09:06 54.76950 85.96906 28129 ft 505 kts 116°
2026-04-22 09:06 54.75437 86.02403 28326 ft 506 kts 117°
2026-04-22 09:06 54.73910 86.07909 28515 ft 508 kts 117°
2026-04-22 09:06 54.72385 86.13416 28772 ft 507 kts 117°
2026-04-22 09:07 54.70886 86.18848 29037 ft 507 kts 117°
2026-04-22 09:07 54.69366 86.24343 29284 ft 507 kts 117°
2026-04-22 09:07 54.67824 86.29894 29549 ft 506 kts 117°
2026-04-22 09:07 54.66311 86.35308 29780 ft 506 kts 117°
2026-04-22 09:08 54.64757 86.40851 30021 ft 506 kts 117°
2026-04-22 09:08 54.63236 86.46257 30231 ft 506 kts 117°
2026-04-22 09:08 54.61698 86.51716 30423 ft 506 kts 117°
2026-04-22 09:08 54.60156 86.57178 30640 ft 506 kts 118°
2026-04-22 09:09 54.58609 86.62643 30833 ft 507 kts 118°
2026-04-22 09:09 54.57057 86.68108 31034 ft 507 kts 118°
2026-04-22 09:09 54.55505 86.73550 31236 ft 507 kts 118°
2026-04-22 09:09 54.53945 86.79004 31438 ft 507 kts 118°
2026-04-22 09:10 54.52384 86.84454 31643 ft 508 kts 118°
2026-04-22 09:10 54.50825 86.89902 31848 ft 508 kts 118°
2026-04-22 09:10 54.49263 86.95355 32052 ft 508 kts 118°
2026-04-22 09:10 54.47697 87.00808 32248 ft 508 kts 118°
2026-04-22 09:11 54.46122 87.06266 32452 ft 509 kts 118°
2026-04-22 09:11 54.44544 87.11710 32653 ft 509 kts 118°
2026-04-22 09:11 54.42960 87.17153 32856 ft 509 kts 118°
2026-04-22 09:11 54.41376 87.22572 33083 ft 509 kts 118°
2026-04-22 09:12 54.39805 87.27938 33268 ft 509 kts 119°
2026-04-22 09:12 54.38214 87.33369 33474 ft 509 kts 118°
2026-04-22 09:12 54.36618 87.38815 33664 ft 510 kts 119°
2026-04-22 09:12 54.35024 87.44245 33856 ft 510 kts 119°
2026-04-22 09:13 54.33427 87.49673 34027 ft 510 kts 119°
2026-04-22 09:13 54.31828 87.55096 34203 ft 510 kts 119°
2026-04-22 09:13 54.30224 87.60522 34358 ft 510 kts 119°
2026-04-22 09:13 54.28620 87.65926 34527 ft 510 kts 119°
2026-04-22 09:14 54.27007 87.71344 34676 ft 510 kts 119°
2026-04-22 09:14 54.25420 87.76671 34833 ft 509 kts 119°
2026-04-22 09:14 54.23806 87.82071 34908 ft 508 kts 119°
2026-04-22 09:15 54.20588 87.92799 34908 ft 507 kts 119°
2026-04-22 09:15 54.17362 88.03504 34907 ft 507 kts 119°
2026-04-22 09:16 54.14135 88.14189 34910 ft 507 kts 119°
2026-04-22 09:16 54.10888 88.24867 34915 ft 507 kts 119°
2026-04-22 09:17 54.07634 88.35524 34909 ft 506 kts 119°
2026-04-22 09:17 54.04378 88.46159 34902 ft 506 kts 119°
2026-04-22 09:18 54.01112 88.56793 34907 ft 507 kts 119°
2026-04-22 09:18 53.97833 88.67388 34906 ft 507 kts 120°
2026-04-22 09:19 53.94540 88.77975 34908 ft 507 kts 120°
2026-04-22 09:19 53.91229 88.88539 34908 ft 507 kts 120°
2026-04-22 09:20 53.87894 88.99062 34904 ft 507 kts 120°
2026-04-22 09:20 53.84560 89.09500 34909 ft 507 kts 120°
2026-04-22 09:21 53.81204 89.19989 34912 ft 507 kts 120°
2026-04-22 09:21 53.77837 89.30465 34916 ft 506 kts 120°
2026-04-22 09:22 53.74462 89.40921 34916 ft 506 kts 120°
2026-04-22 09:22 53.71089 89.51360 34926 ft 506 kts 121°
2026-04-22 09:23 53.67700 89.61778 34941 ft 506 kts 121°
2026-04-22 09:23 53.64301 89.72183 34958 ft 506 kts 121°
2026-04-22 09:24 53.60901 89.82559 34981 ft 506 kts 121°
2026-04-22 09:24 53.57489 89.92935 34996 ft 506 kts 121°
2026-04-22 09:25 53.54067 90.03279 35011 ft 506 kts 121°
2026-04-22 09:25 53.50658 90.13523 35020 ft 505 kts 121°
2026-04-22 09:26 53.47218 90.23813 35029 ft 505 kts 121°
2026-04-22 09:26 53.43769 90.34092 35027 ft 505 kts 122°
2026-04-22 09:27 53.40312 90.44368 35027 ft 505 kts 121°
2026-04-22 09:27 53.36856 90.54613 35022 ft 505 kts 122°
2026-04-22 09:28 53.33388 90.64821 35014 ft 505 kts 122°
2026-04-22 09:28 53.29909 90.75022 35008 ft 505 kts 122°
2026-04-22 09:29 53.26426 90.85217 35006 ft 505 kts 122°
2026-04-22 09:29 53.22955 90.95320 35005 ft 505 kts 122°
2026-04-22 09:30 53.19448 91.05486 35000 ft 506 kts 122°
2026-04-22 09:30 53.15929 91.15650 34999 ft 506 kts 122°
2026-04-22 09:31 53.12400 91.25789 34993 ft 506 kts 122°
2026-04-22 09:31 53.08857 91.35918 34988 ft 506 kts 122°
2026-04-22 09:32 53.05302 91.46019 34985 ft 506 kts 123°
2026-04-22 09:32 53.01752 91.56108 34980 ft 506 kts 123°
2026-04-22 09:33 52.98185 91.66180 34972 ft 505 kts 123°
2026-04-22 09:33 52.94616 91.76224 34964 ft 505 kts 123°
2026-04-22 09:34 52.91046 91.86261 34956 ft 505 kts 123°
2026-04-22 09:34 52.87463 91.96271 34954 ft 505 kts 123°
2026-04-22 09:35 52.82068 92.11245 34938 ft 505 kts 123°
2026-04-22 09:35 52.78483 92.21137 34931 ft 505 kts 123°
2026-04-22 09:36 52.74865 92.31086 34921 ft 505 kts 123°
2026-04-22 09:36 52.71246 92.41003 34925 ft 505 kts 123°
2026-04-22 09:37 52.67620 92.50918 34918 ft 505 kts 124°
2026-04-22 09:37 52.63979 92.60800 34908 ft 504 kts 124°
2026-04-22 09:38 52.60332 92.70666 34908 ft 504 kts 124°
2026-04-22 09:38 52.56686 92.80515 34902 ft 504 kts 124°
2026-04-22 09:39 52.53033 92.90360 34895 ft 505 kts 124°
2026-04-22 09:39 52.49987 92.98528 34889 ft 504 kts 124°
2026-04-22 09:40 52.46313 93.08331 34882 ft 504 kts 124°
2026-04-22 09:40 52.42623 93.18150 34887 ft 505 kts 124°
2026-04-22 09:41 52.38932 93.27937 34882 ft 505 kts 125°
2026-04-22 09:41 52.35226 93.37707 34879 ft 505 kts 124°
2026-04-22 09:42 52.31538 93.47400 34882 ft 505 kts 125°
2026-04-22 09:42 52.27813 93.57139 34887 ft 506 kts 125°
2026-04-22 09:43 52.24081 93.66874 34888 ft 505 kts 125°
2026-04-22 09:43 52.20347 93.76589 34883 ft 505 kts 125°
2026-04-22 09:44 52.16601 93.86287 34884 ft 506 kts 125°
2026-04-22 09:44 52.12855 93.96002 34887 ft 506 kts 124°
2026-04-22 09:45 52.09180 94.05780 34885 ft 507 kts 124°
2026-04-22 09:45 52.05524 94.15585 34881 ft 507 kts 124°
2026-04-22 09:46 52.01836 94.25364 34882 ft 508 kts 124°
2026-04-22 09:46 51.98119 94.35112 34877 ft 508 kts 124°
2026-04-22 09:47 51.94420 94.44792 34879 ft 508 kts 124°
2026-04-22 09:47 51.90687 94.54539 34880 ft 509 kts 124°
2026-04-22 09:48 51.86946 94.64258 34882 ft 509 kts 125°
2026-04-22 09:48 51.83187 94.73965 34881 ft 509 kts 125°
2026-04-22 09:49 51.79424 94.83666 34879 ft 510 kts 125°
2026-04-22 09:49 51.75646 94.93371 34884 ft 510 kts 124°
2026-04-22 09:50 51.71867 95.03057 34880 ft 510 kts 125°
2026-04-22 09:50 51.68072 95.12733 34882 ft 510 kts 125°
2026-04-22 09:51 51.64292 95.22326 34886 ft 510 kts 125°
2026-04-22 09:51 51.60456 95.32027 34880 ft 511 kts 125°
2026-04-22 09:52 51.56659 95.41601 34879 ft 511 kts 125°
2026-04-22 09:52 51.52837 95.51219 34879 ft 511 kts 126°
2026-04-22 09:53 51.48998 95.60833 34881 ft 511 kts 126°
2026-04-22 09:53 51.45163 95.70417 34887 ft 511 kts 126°
2026-04-22 09:54 51.41307 95.79986 34888 ft 511 kts 126°
2026-04-22 09:54 51.37441 95.89523 34880 ft 511 kts 126°
2026-04-22 09:55 51.33594 95.98997 34883 ft 511 kts 126°
2026-04-22 09:55 51.29721 96.08512 34877 ft 510 kts 126°
2026-04-22 09:56 51.25836 96.18010 34884 ft 510 kts 126°
2026-04-22 09:56 51.21950 96.27489 34885 ft 510 kts 126°
2026-04-22 09:57 51.18059 96.36955 34882 ft 510 kts 126°
2026-04-22 09:57 51.14157 96.46403 34883 ft 510 kts 126°
2026-04-22 09:58 51.10240 96.55833 34882 ft 510 kts 126°
2026-04-22 09:58 51.06347 96.65191 34877 ft 510 kts 126°
2026-04-22 09:59 51.02421 96.74598 34879 ft 510 kts 126°
2026-04-22 09:59 50.98488 96.83992 34877 ft 510 kts 126°
2026-04-22 10:00 50.94542 96.93367 34879 ft 510 kts 126°
2026-04-22 10:00 50.90592 97.02731 34882 ft 511 kts 126°
2026-04-22 10:01 50.86622 97.12097 34874 ft 511 kts 126°
2026-04-22 10:01 50.82681 97.21363 34874 ft 511 kts 126°
2026-04-22 10:02 50.78704 97.30680 34872 ft 511 kts 126°
2026-04-22 10:02 50.74721 97.39977 34868 ft 511 kts 127°
2026-04-22 10:03 50.70738 97.49264 34871 ft 511 kts 127°
2026-04-22 10:03 50.66741 97.58542 34871 ft 511 kts 127°
2026-04-22 10:04 50.62730 97.67804 34871 ft 511 kts 127°
2026-04-22 10:04 50.58737 97.76990 34874 ft 511 kts 127°
2026-04-22 10:05 50.54719 97.86207 34873 ft 511 kts 127°
2026-04-22 10:05 50.50691 97.95423 34878 ft 510 kts 127°
2026-04-22 10:06 50.46667 98.04600 34877 ft 510 kts 127°
2026-04-22 10:06 50.42640 98.13750 34875 ft 509 kts 127°
2026-04-22 10:07 50.38611 98.22859 35016 ft 508 kts 127°
2026-04-22 10:07 50.34575 98.31948 34967 ft 508 kts 127°
2026-04-22 10:08 50.30526 98.41020 34954 ft 507 kts 127°
2026-04-22 10:08 50.26474 98.50072 34950 ft 507 kts 127°
2026-04-22 10:09 50.22431 98.59043 34950 ft 508 kts 127°
2026-04-22 10:09 50.18355 98.68064 34944 ft 508 kts 127°
2026-04-22 10:10 50.14279 98.77092 34937 ft 508 kts 127°
2026-04-22 10:10 50.10205 98.86091 34936 ft 508 kts 127°
2026-04-22 10:11 50.06114 98.95063 34933 ft 508 kts 127°
2026-04-22 10:11 50.02015 99.04024 34931 ft 508 kts 127°
2026-04-22 10:12 49.97940 99.12904 34923 ft 508 kts 127°
2026-04-22 10:12 49.93824 99.21844 34918 ft 508 kts 127°
2026-04-22 10:13 49.89707 99.30756 34916 ft 508 kts 127°
2026-04-22 10:13 49.85585 99.39652 34908 ft 508 kts 127°
2026-04-22 10:14 49.81459 99.48524 34902 ft 507 kts 128°
2026-04-22 10:14 49.77325 99.57376 34904 ft 507 kts 128°
2026-04-22 10:15 49.73191 99.66202 34897 ft 507 kts 128°
2026-04-22 10:15 49.69081 99.74981 34898 ft 507 kts 127°
2026-04-22 10:16 49.64938 99.83778 34892 ft 507 kts 128°
2026-04-22 10:16 49.60776 99.92556 34893 ft 507 kts 128°
2026-04-22 10:17 49.56618 100.01333 34890 ft 507 kts 128°
2026-04-22 10:17 49.52452 100.10093 34888 ft 507 kts 128°
2026-04-22 10:18 49.48284 100.18821 34885 ft 506 kts 128°
2026-04-22 10:18 49.44102 100.27533 34880 ft 506 kts 128°
2026-04-22 10:19 49.39926 100.36239 34878 ft 506 kts 128°
2026-04-22 10:19 49.35745 100.44914 34873 ft 506 kts 128°
2026-04-22 10:20 49.31559 100.53582 34874 ft 505 kts 128°
2026-04-22 10:20 49.27392 100.62171 34870 ft 505 kts 128°
2026-04-22 10:21 49.23188 100.70784 34866 ft 505 kts 128°
2026-04-22 10:21 49.18985 100.79402 34864 ft 505 kts 128°
2026-04-22 10:22 49.14784 100.87990 34861 ft 505 kts 128°
2026-04-22 10:22 49.10567 100.96546 34860 ft 504 kts 128°
2026-04-22 10:23 49.06348 101.05100 34860 ft 504 kts 128°
2026-04-22 10:23 49.02123 101.13648 34864 ft 505 kts 128°
2026-04-22 10:24 48.97888 101.22186 34868 ft 505 kts 128°
2026-04-22 10:24 48.93684 101.30646 34867 ft 504 kts 128°
2026-04-22 10:25 48.89444 101.39137 34863 ft 504 kts 128°
2026-04-22 10:25 48.85193 101.47608 34863 ft 504 kts 128°
2026-04-22 10:26 48.80937 101.56070 34863 ft 504 kts 128°
2026-04-22 10:26 48.76678 101.64520 34861 ft 503 kts 128°
2026-04-22 10:27 48.72413 101.72941 34858 ft 503 kts 128°
2026-04-22 10:27 48.68145 101.81357 34859 ft 503 kts 128°
2026-04-22 10:28 48.63906 101.89703 34863 ft 503 kts 128°
2026-04-22 10:28 48.59631 101.98073 34863 ft 503 kts 128°
2026-04-22 10:29 48.55354 102.06423 34865 ft 503 kts 128°
2026-04-22 10:29 48.51762 102.13406 34863 ft 502 kts 128°
2026-04-22 10:30 48.47473 102.21718 34864 ft 502 kts 128°
2026-04-22 10:30 48.43193 102.30011 34869 ft 501 kts 128°
2026-04-22 10:31 48.38937 102.38222 34864 ft 500 kts 128°
2026-04-22 10:31 48.34643 102.46472 34871 ft 500 kts 128°
2026-04-22 10:32 48.30351 102.54698 34870 ft 500 kts 128°
2026-04-22 10:32 48.26063 102.62903 34865 ft 499 kts 128°
2026-04-22 10:33 48.21771 102.71092 34872 ft 499 kts 129°
2026-04-22 10:33 48.17471 102.79260 34874 ft 499 kts 129°
2026-04-22 10:34 48.13172 102.87396 34874 ft 498 kts 129°
2026-04-22 10:34 48.08868 102.95530 34870 ft 498 kts 129°
2026-04-22 10:35 48.04566 103.03648 34873 ft 498 kts 129°
2026-04-22 10:35 48.00284 103.11687 34871 ft 498 kts 129°
2026-04-22 10:36 47.95965 103.19757 34871 ft 497 kts 129°
2026-04-22 10:36 47.91646 103.27809 34864 ft 497 kts 129°
2026-04-22 10:37 47.85158 103.39872 34865 ft 497 kts 129°
2026-04-22 10:38 47.80827 103.47885 34868 ft 497 kts 129°
2026-04-22 10:38 47.76493 103.55876 34871 ft 496 kts 129°
2026-04-22 10:39 47.72159 103.63862 34875 ft 496 kts 129°
2026-04-22 10:39 47.67827 103.71826 34871 ft 496 kts 129°
2026-04-22 10:40 47.63510 103.79726 34877 ft 495 kts 129°
2026-04-22 10:40 47.59166 103.87663 34889 ft 495 kts 129°
2026-04-22 10:41 47.54825 103.95556 34892 ft 494 kts 129°
2026-04-22 10:41 47.50474 104.03431 34893 ft 494 kts 129°
2026-04-22 10:42 47.46132 104.11297 34891 ft 493 kts 129°
2026-04-22 10:42 47.41787 104.19135 34899 ft 493 kts 129°
2026-04-22 10:43 47.37437 104.26945 34904 ft 492 kts 130°
2026-04-22 10:43 47.33097 104.34754 34906 ft 492 kts 130°
2026-04-22 10:44 47.28754 104.42538 34917 ft 492 kts 130°
2026-04-22 10:44 47.24398 104.50299 34910 ft 491 kts 130°
2026-04-22 10:45 47.20036 104.58044 34922 ft 491 kts 130°
2026-04-22 10:45 47.15677 104.65780 34917 ft 491 kts 130°
2026-04-22 10:46 47.11318 104.73507 34924 ft 491 kts 130°
2026-04-22 10:46 47.06974 104.81156 34918 ft 491 kts 130°
2026-04-22 10:47 47.02593 104.88841 34923 ft 491 kts 131°
2026-04-22 10:47 46.98210 104.96506 34920 ft 490 kts 131°
2026-04-22 10:48 46.93833 105.04171 34923 ft 490 kts 131°
2026-04-22 10:48 46.89460 105.11809 34927 ft 490 kts 131°
2026-04-22 10:49 46.85075 105.19432 34930 ft 489 kts 131°
2026-04-22 10:49 46.80689 105.27034 34926 ft 489 kts 131°
2026-04-22 10:50 46.76304 105.34621 34925 ft 489 kts 131°
2026-04-22 10:50 46.71918 105.42196 34923 ft 489 kts 131°
2026-04-22 10:51 46.67534 105.49758 34928 ft 488 kts 131°
2026-04-22 10:51 46.63161 105.57256 34930 ft 488 kts 132°
2026-04-22 10:52 46.58758 105.64776 34930 ft 488 kts 132°
2026-04-22 10:52 46.54348 105.72290 34927 ft 489 kts 132°
2026-04-22 10:53 46.49932 105.79802 34926 ft 489 kts 132°
2026-04-22 10:53 46.45504 105.87301 34923 ft 489 kts 132°
2026-04-22 10:54 46.41067 105.94793 34932 ft 490 kts 132°
2026-04-22 10:54 46.36627 106.02278 34930 ft 490 kts 133°
2026-04-22 10:55 46.32180 106.09749 34928 ft 490 kts 133°
2026-04-22 10:55 46.27755 106.17191 34920 ft 491 kts 133°
2026-04-22 10:56 46.23291 106.24676 34887 ft 492 kts 130°
2026-04-22 10:56 46.18801 106.32154 34897 ft 493 kts 130°
2026-04-22 10:57 46.14297 106.39626 34902 ft 493 kts 130°
2026-04-22 10:57 46.09795 106.47088 34911 ft 494 kts 130°
2026-04-22 10:58 46.05287 106.54556 34917 ft 494 kts 130°
2026-04-22 10:58 46.00773 106.62018 34925 ft 493 kts 130°
2026-04-22 10:59 45.96258 106.69454 34928 ft 493 kts 130°
2026-04-22 10:59 45.91743 106.76863 34931 ft 493 kts 130°
2026-04-22 11:00 45.87224 106.84257 34927 ft 492 kts 130°
2026-04-22 11:00 45.82747 106.91577 34926 ft 491 kts 130°
2026-04-22 11:01 45.78235 106.98923 34919 ft 490 kts 130°
2026-04-22 11:01 45.73719 107.06242 34910 ft 490 kts 130°
2026-04-22 11:02 45.69207 107.13543 34914 ft 490 kts 130°
2026-04-22 11:02 45.64704 107.20838 34912 ft 489 kts 130°
2026-04-22 11:03 45.60196 107.28124 34908 ft 489 kts 130°
2026-04-22 11:03 45.55666 107.35395 34905 ft 489 kts 130°
2026-04-22 11:04 45.51166 107.42596 34894 ft 489 kts 130°
2026-04-22 11:04 45.46645 107.49825 34892 ft 488 kts 130°
2026-04-22 11:05 45.42120 107.57043 34895 ft 488 kts 130°
2026-04-22 11:05 45.37594 107.64249 34890 ft 488 kts 130°
2026-04-22 11:06 45.33075 107.71422 34890 ft 487 kts 131°
2026-04-22 11:06 45.28544 107.78592 34892 ft 487 kts 131°
2026-04-22 11:07 45.24014 107.85741 34886 ft 487 kts 131°
2026-04-22 11:07 45.19485 107.92866 34886 ft 486 kts 131°
2026-04-22 11:08 45.14955 107.99983 34886 ft 486 kts 131°
2026-04-22 11:08 45.10422 108.07082 34884 ft 485 kts 131°
2026-04-22 11:09 45.05890 108.14166 34881 ft 485 kts 131°
2026-04-22 11:09 45.01387 108.21190 34881 ft 484 kts 131°
2026-04-22 11:10 44.96858 108.28235 34881 ft 484 kts 131°
2026-04-22 11:10 44.92331 108.35263 34879 ft 484 kts 131°
2026-04-22 11:11 44.87796 108.42280 34877 ft 484 kts 131°
2026-04-22 11:11 44.83256 108.49275 34869 ft 484 kts 131°
2026-04-22 11:12 44.78709 108.56272 34875 ft 484 kts 131°
2026-04-22 11:12 44.74155 108.63254 34873 ft 484 kts 131°
2026-04-22 11:13 44.69598 108.70223 34878 ft 483 kts 131°
2026-04-22 11:13 44.65047 108.77169 34879 ft 483 kts 131°
2026-04-22 11:14 44.60490 108.84101 34879 ft 483 kts 131°
2026-04-22 11:14 44.55944 108.91017 34879 ft 482 kts 132°
2026-04-22 11:15 44.51405 108.97892 34876 ft 482 kts 132°
2026-04-22 11:15 44.47586 109.03670 34872 ft 482 kts 132°
2026-04-22 11:16 44.43060 109.10501 34880 ft 482 kts 132°
2026-04-22 11:16 44.38489 109.17367 34875 ft 482 kts 132°
2026-04-22 11:17 44.33916 109.24226 34873 ft 482 kts 132°
2026-04-22 11:17 44.29343 109.31080 34866 ft 482 kts 133°
2026-04-22 11:18 44.24771 109.37916 34873 ft 482 kts 133°
2026-04-22 11:18 44.20193 109.44732 34869 ft 482 kts 133°
2026-04-22 11:19 44.15607 109.51553 34872 ft 481 kts 133°
2026-04-22 11:19 44.11021 109.58342 34874 ft 481 kts 133°
2026-04-22 11:20 44.06442 109.65108 34877 ft 480 kts 133°
2026-04-22 11:20 44.01859 109.71874 34883 ft 480 kts 133°
2026-04-22 11:21 43.97276 109.78621 34882 ft 480 kts 133°
2026-04-22 11:21 43.92692 109.85350 34881 ft 480 kts 134°
2026-04-22 11:22 43.88136 109.92021 34881 ft 479 kts 134°
2026-04-22 11:22 43.83548 109.98726 34878 ft 479 kts 134°
2026-04-22 11:23 43.78958 110.05421 34880 ft 479 kts 134°
2026-04-22 11:23 43.74356 110.12111 34878 ft 480 kts 134°
2026-04-22 11:24 43.69759 110.18794 34874 ft 480 kts 134°
2026-04-22 11:24 43.65153 110.25466 34877 ft 480 kts 134°
2026-04-22 11:25 43.60540 110.32130 34875 ft 480 kts 134°
2026-04-22 11:25 43.55917 110.38785 34877 ft 480 kts 135°
2026-04-22 11:26 43.51281 110.45432 34881 ft 481 kts 135°
2026-04-22 11:26 43.46654 110.52078 34890 ft 481 kts 135°
2026-04-22 11:27 43.42047 110.58672 34896 ft 481 kts 135°
2026-04-22 11:27 43.37383 110.65288 34898 ft 481 kts 135°
2026-04-22 11:28 43.32733 110.71908 34901 ft 481 kts 135°
2026-04-22 11:28 43.28078 110.78526 34899 ft 481 kts 135°
2026-04-22 11:29 43.23417 110.85132 34905 ft 482 kts 135°
2026-04-22 11:29 43.18985 110.92022 34909 ft 482 kts 129°
2026-04-22 11:30 43.14778 110.99186 34901 ft 482 kts 130°
2026-04-22 11:30 43.10553 111.06325 34906 ft 482 kts 130°
2026-04-22 11:31 43.06322 111.13451 34900 ft 482 kts 130°
2026-04-22 11:31 43.02091 111.20566 34895 ft 482 kts 130°
2026-04-22 11:32 42.97858 111.27675 34884 ft 482 kts 130°
2026-04-22 11:32 42.93624 111.34774 34890 ft 482 kts 130°
2026-04-22 11:33 42.89416 111.41803 34892 ft 482 kts 130°
2026-04-22 11:33 42.85161 111.48895 34901 ft 482 kts 130°
2026-04-22 11:34 42.80913 111.55954 34908 ft 481 kts 130°
2026-04-22 11:34 42.76664 111.62996 34911 ft 481 kts 130°
2026-04-22 11:35 42.72412 111.70026 34913 ft 480 kts 130°
2026-04-22 11:35 42.68166 111.77041 34918 ft 480 kts 130°
2026-04-22 11:36 42.63940 111.84005 34918 ft 480 kts 130°
2026-04-22 11:36 42.59684 111.90981 34921 ft 480 kts 130°
2026-04-22 11:37 42.55476 111.97999 34929 ft 480 kts 129°
2026-04-22 11:37 42.51298 112.05078 34928 ft 480 kts 129°
2026-04-22 11:38 42.47114 112.12141 34936 ft 480 kts 129°
2026-04-22 11:38 42.40794 112.22677 34940 ft 481 kts 130°
2026-04-22 11:39 42.36577 112.29686 34952 ft 481 kts 129°
2026-04-22 11:39 42.32357 112.36698 34950 ft 480 kts 129°
2026-04-22 11:40 42.28136 112.43703 34957 ft 480 kts 129°
2026-04-22 11:40 42.23944 112.50637 34958 ft 479 kts 130°
2026-04-22 11:41 42.19726 112.57575 34963 ft 478 kts 130°
2026-04-22 11:41 42.15510 112.64514 34956 ft 478 kts 129°
2026-04-22 11:42 42.11294 112.71448 34957 ft 478 kts 129°
2026-04-22 11:42 42.07080 112.78366 34961 ft 478 kts 129°
2026-04-22 11:43 42.02856 112.85272 34965 ft 477 kts 130°
2026-04-22 11:43 41.98628 112.92149 34959 ft 477 kts 130°
2026-04-22 11:44 41.94403 112.99007 34965 ft 477 kts 130°
2026-04-22 11:44 41.90174 113.05863 34964 ft 476 kts 131°
2026-04-22 11:45 41.87832 113.08989 34963 ft 474 kts 142°
2026-04-22 11:45 41.85140 113.11504 34962 ft 471 kts 153°
2026-04-22 11:45 41.79059 113.14473 34964 ft 463 kts 173°
2026-04-22 11:46 41.72676 113.14754 34961 ft 458 kts 185°
2026-04-22 11:46 41.66315 113.14425 34963 ft 458 kts 185°
2026-04-22 11:47 41.59938 113.14107 34973 ft 458 kts 185°
2026-04-22 11:47 41.53571 113.13792 34976 ft 458 kts 185°
2026-04-22 11:48 41.47196 113.13474 34986 ft 458 kts 185°
2026-04-22 11:48 41.40815 113.13159 34991 ft 459 kts 185°
2026-04-22 11:49 41.34430 113.12846 34999 ft 459 kts 185°
2026-04-22 11:49 41.28052 113.12528 35002 ft 459 kts 185°
2026-04-22 11:50 41.21668 113.12209 34998 ft 458 kts 185°
2026-04-22 11:50 41.15337 113.11889 35002 ft 458 kts 185°
2026-04-22 11:51 41.08965 113.11577 35000 ft 458 kts 185°
2026-04-22 11:51 41.02587 113.11267 35004 ft 458 kts 185°
2026-04-22 11:52 40.96219 113.10958 35015 ft 458 kts 185°
2026-04-22 11:52 40.89880 113.10653 35019 ft 457 kts 185°
2026-04-22 11:53 40.83520 113.10348 35025 ft 457 kts 185°
2026-04-22 11:53 40.77168 113.10044 35029 ft 457 kts 185°
2026-04-22 11:54 40.70816 113.09749 35032 ft 456 kts 185°
2026-04-22 11:54 40.64472 113.09450 35033 ft 456 kts 185°
2026-04-22 11:55 40.58128 113.09141 35034 ft 455 kts 186°
2026-04-22 11:55 40.51809 113.08830 35036 ft 454 kts 186°
2026-04-22 11:56 40.45489 113.08542 35035 ft 454 kts 183°
2026-04-22 11:56 40.42345 113.09036 35035 ft 460 kts 168°
2026-04-22 11:56 40.39362 113.10633 35030 ft 466 kts 151°
2026-04-22 11:57 40.36815 113.13281 35026 ft 471 kts 134°
2026-04-22 11:57 40.34966 113.16807 35017 ft 473 kts 115°
2026-04-22 11:57 40.33986 113.20905 35002 ft 473 kts 97°
2026-04-22 11:57 40.33665 113.25206 34991 ft 473 kts 94°
2026-04-22 11:58 40.33090 113.33827 34988 ft 476 kts 95°
2026-04-22 11:58 40.32480 113.42488 34990 ft 478 kts 95°
2026-04-22 11:59 40.31845 113.51179 34993 ft 479 kts 95°
2026-04-22 11:59 40.31220 113.59838 34993 ft 481 kts 95°
2026-04-22 12:00 40.30692 113.67148 34996 ft 482 kts 95°
2026-04-22 12:00 40.29955 113.77318 34994 ft 483 kts 95°
2026-04-22 12:01 40.29415 113.84661 34992 ft 484 kts 95°
2026-04-22 12:01 40.28766 113.93459 34995 ft 485 kts 95°
2026-04-22 12:02 40.28107 114.02207 34996 ft 487 kts 96°
2026-04-22 12:02 40.27447 114.11029 34994 ft 487 kts 95°
2026-04-22 12:03 40.27022 114.19892 35001 ft 488 kts 92°
2026-04-22 12:03 40.26739 114.28778 35000 ft 488 kts 92°
2026-04-22 12:04 40.26414 114.37669 34997 ft 489 kts 93°
2026-04-22 12:04 40.26017 114.46564 34996 ft 489 kts 93°
2026-04-22 12:05 40.25593 114.55468 34896 ft 491 kts 94°
2026-04-22 12:05 40.25386 114.59925 34657 ft 491 kts 94°
2026-04-22 12:05 40.25181 114.64385 34421 ft 491 kts 93°
2026-04-22 12:06 40.24979 114.68847 33648 ft 495 kts 93°
2026-04-22 12:06 40.24770 114.73387 32510 ft 501 kts 93°
2026-04-22 12:06 40.24559 114.77946 31487 ft 505 kts 94°
2026-04-22 12:06 40.24346 114.82549 30483 ft 507 kts 94°
2026-04-22 12:07 40.24125 114.87188 29154 ft 514 kts 94°
2026-04-22 12:07 40.23898 114.91864 28062 ft 515 kts 94°
2026-04-22 12:07 40.23671 114.96503 27482 ft 504 kts 93°
2026-04-22 12:07 40.23447 115.01050 26718 ft 500 kts 93°
2026-04-22 12:08 40.23224 115.05560 26004 ft 494 kts 93°
2026-04-22 12:08 40.22999 115.10033 25294 ft 490 kts 93°
2026-04-22 12:08 40.22775 115.14472 24593 ft 486 kts 93°
2026-04-22 12:08 40.22554 115.18861 23899 ft 482 kts 93°
2026-04-22 12:09 40.22337 115.23213 23166 ft 477 kts 93°
2026-04-22 12:09 40.22124 115.27456 22508 ft 470 kts 93°
2026-04-22 12:09 40.21909 115.31687 21895 ft 462 kts 93°
2026-04-22 12:09 40.21691 115.35851 21307 ft 453 kts 93°
2026-04-22 12:10 40.21476 115.39928 20740 ft 445 kts 92°
2026-04-22 12:10 40.21203 115.43921 20211 ft 436 kts 98°
2026-04-22 12:10 40.20474 115.47721 19688 ft 427 kts 109°
2026-04-22 12:10 40.19250 115.51205 19239 ft 417 kts 120°
2026-04-22 12:11 40.17617 115.54291 18784 ft 408 kts 130°
2026-04-22 12:11 40.15676 115.56939 18326 ft 400 kts 137°
2026-04-22 12:11 40.13697 115.59449 17829 ft 394 kts 136°
2026-04-22 12:11 40.11751 115.61920 17377 ft 387 kts 136°
2026-04-22 12:12 40.09832 115.64353 16928 ft 382 kts 136°
2026-04-22 12:12 40.07929 115.66761 16474 ft 379 kts 136°
2026-04-22 12:12 40.06063 115.69122 16013 ft 376 kts 136°
2026-04-22 12:12 40.04195 115.71483 15552 ft 373 kts 136°
2026-04-22 12:13 40.02334 115.73830 15077 ft 370 kts 136°
2026-04-22 12:13 40.00494 115.76151 14608 ft 366 kts 136°
2026-04-22 12:13 39.98672 115.78447 14123 ft 363 kts 136°
2026-04-22 12:13 39.96861 115.80731 13635 ft 360 kts 136°
2026-04-22 12:14 39.95069 115.82992 13120 ft 357 kts 136°
2026-04-22 12:14 39.93292 115.85229 12649 ft 353 kts 136°
2026-04-22 12:14 39.91528 115.87447 12149 ft 351 kts 136°
2026-04-22 12:14 39.89782 115.89634 11658 ft 348 kts 136°
2026-04-22 12:15 39.88044 115.91807 11165 ft 345 kts 136°
2026-04-22 12:15 39.86320 115.93964 10728 ft 340 kts 135°
2026-04-22 12:15 39.84654 115.96050 10601 ft 325 kts 135°
2026-04-22 12:15 39.83059 115.98045 10464 ft 312 kts 135°
2026-04-22 12:16 39.81515 115.99977 10155 ft 305 kts 135°
2026-04-22 12:16 39.79998 116.01879 9918 ft 302 kts 135°
2026-04-22 12:16 39.78507 116.03801 9794 ft 301 kts 129°
2026-04-22 12:16 39.77373 116.06060 9659 ft 298 kts 112°
2026-04-22 12:17 39.76774 116.08615 9473 ft 296 kts 97°
2026-04-22 12:17 39.76732 116.11246 8924 ft 295 kts 81°
2026-04-22 12:17 39.77016 116.13885 8413 ft 295 kts 81°
2026-04-22 12:17 39.77275 116.16496 8161 ft 286 kts 82°
2026-04-22 12:18 39.77510 116.19015 8024 ft 273 kts 82°
2026-04-22 12:18 39.77732 116.21406 7798 ft 260 kts 82°
2026-04-22 12:18 39.77945 116.23702 7471 ft 252 kts 83°
2026-04-22 12:18 39.78150 116.25972 7179 ft 252 kts 83°
2026-04-22 12:19 39.78352 116.28233 6862 ft 251 kts 84°
2026-04-22 12:19 39.78552 116.30487 6528 ft 250 kts 84°
2026-04-22 12:19 39.78619 116.31241 6418 ft 250 kts 84°
2026-04-22 12:20 39.78742 116.32611 6095 ft 254 kts 84°
2026-04-22 12:20 39.78949 116.34922 5645 ft 257 kts 85°
2026-04-22 12:20 39.79153 116.37192 5482 ft 247 kts 85°
2026-04-22 12:20 39.79204 116.39394 5523 ft 244 kts 103°
2026-04-22 12:21 39.78538 116.41359 5511 ft 237 kts 131°
2026-04-22 12:21 39.77303 116.42661 5507 ft 226 kts 157°
2026-04-22 12:21 39.75791 116.43120 5508 ft 227 kts 182°
2026-04-22 12:21 39.74244 116.42657 5510 ft 231 kts 208°
2026-04-22 12:22 39.73014 116.41338 5507 ft 232 kts 234°
2026-04-22 12:22 39.72361 116.39428 5507 ft 234 kts 258°
2026-04-22 12:22 39.72124 116.37332 5509 ft 235 kts 262°
2026-04-22 12:22 39.71930 116.35214 5508 ft 236 kts 262°
2026-04-22 12:23 39.71747 116.33099 5506 ft 236 kts 262°
2026-04-22 12:23 39.71564 116.30984 5507 ft 235 kts 262°
2026-04-22 12:23 39.71561 116.28866 5503 ft 237 kts 281°
2026-04-22 12:23 39.72255 116.26933 5506 ft 240 kts 308°
2026-04-22 12:24 39.73575 116.25612 5507 ft 243 kts 336°
2026-04-22 12:24 39.75241 116.25245 5507 ft 246 kts
2026-04-22 12:24 39.76853 116.25948 5505 ft 247 kts 34°
2026-04-22 12:24 39.78019 116.27561 5505 ft 247 kts 64°
2026-04-22 12:25 39.78487 116.29679 5510 ft 245 kts 84°
2026-04-22 12:25 39.78703 116.31886 5506 ft 246 kts 85°
2026-04-22 12:25 39.78899 116.34095 5507 ft 246 kts 85°
2026-04-22 12:25 39.79093 116.36301 5507 ft 246 kts 85°
2026-04-22 12:26 39.79264 116.38508 5504 ft 245 kts 91°
2026-04-22 12:26 39.78894 116.40625 5504 ft 240 kts 120°
2026-04-22 12:26 39.77826 116.42247 5506 ft 236 kts 148°
2026-04-22 12:26 39.76328 116.43041 5508 ft 234 kts 174°
2026-04-22 12:27 39.74729 116.42873 5509 ft 232 kts 200°
2026-04-22 12:27 39.73367 116.41787 5507 ft 232 kts 226°
2026-04-22 12:27 39.72527 116.40015 5509 ft 233 kts 252°
2026-04-22 12:27 39.72227 116.37935 5509 ft 235 kts 261°
2026-04-22 12:28 39.72024 116.35823 5509 ft 236 kts 262°
2026-04-22 12:28 39.71838 116.33709 5510 ft 236 kts 262°
2026-04-22 12:28 39.71657 116.31598 5509 ft 235 kts 262°
2026-04-22 12:28 39.71541 116.29477 5503 ft 236 kts 274°
2026-04-22 12:29 39.72039 116.27451 5509 ft 239 kts 301°
2026-04-22 12:29 39.73207 116.25921 5506 ft 242 kts 329°
2026-04-22 12:29 39.74815 116.25279 5507 ft 246 kts 358°
2026-04-22 12:29 39.76482 116.25708 5507 ft 247 kts 27°
2026-04-22 12:30 39.78427 116.29169 5508 ft 245 kts 83°
2026-04-22 12:30 39.78654 116.31368 5507 ft 246 kts 85°
2026-04-22 12:30 39.78852 116.33576 5508 ft 246 kts 85°
2026-04-22 12:31 39.79046 116.35789 5509 ft 246 kts 85°
2026-04-22 12:31 39.79238 116.37996 5508 ft 246 kts 86°
2026-04-22 12:31 39.79049 116.40167 5506 ft 242 kts 114°
2026-04-22 12:31 39.78126 116.41944 5509 ft 238 kts 141°
2026-04-22 12:32 39.76720 116.42948 5511 ft 234 kts 168°
2026-04-22 12:32 39.73662 116.42154 5510 ft 232 kts 219°
2026-04-22 12:32 39.72659 116.40537 5508 ft 233 kts 245°
2026-04-22 12:33 39.72261 116.38501 5510 ft 235 kts 261°
2026-04-22 12:33 39.72050 116.36394 5508 ft 235 kts 262°
2026-04-22 12:33 39.71866 116.34284 5508 ft 235 kts 262°
2026-04-22 12:33 39.71684 116.32174 5509 ft 235 kts 262°
2026-04-22 12:34 39.71513 116.30058 5508 ft 236 kts 266°
2026-04-22 12:34 39.71802 116.27973 5505 ft 238 kts 293°
2026-04-22 12:34 39.72777 116.26285 5506 ft 230 kts 320°
2026-04-22 12:34 39.74162 116.25382 5514 ft 223 kts 346°
2026-04-22 12:35 39.75659 116.25335 5504 ft 209 kts 11°
2026-04-22 12:35 39.76942 116.26026 5495 ft 195 kts 38°
2026-04-22 12:35 39.77694 116.27410 5510 ft 188 kts 73°
2026-04-22 12:35 39.78018 116.29054 5461 ft 186 kts 81°
2026-04-22 12:36 39.78257 116.30699 5241 ft 183 kts 82°
2026-04-22 12:36 39.78482 116.32307 5028 ft 179 kts 82°
2026-04-22 12:36 39.78709 116.33900 4785 ft 179 kts 82°
2026-04-22 12:36 39.78791 116.35488 4514 ft 174 kts 108°
2026-04-22 12:37 39.78261 116.36850 4285 ft 167 kts 131°
2026-04-22 12:37 39.77426 116.37871 4023 ft 164 kts 150°
2026-04-22 12:37 39.76400 116.38469 3782 ft 161 kts 168°
2026-04-22 12:37 39.75307 116.38680 3547 ft 158 kts 175°
2026-04-22 12:38 39.74212 116.38854 3265 ft 160 kts 175°
2026-04-22 12:38 39.73049 116.39037 2726 ft 175 kts 175°
2026-04-22 12:38 39.71804 116.39234 2223 ft 183 kts 174°
2026-04-22 12:38 39.70586 116.39429 2091 ft 170 kts 174°
2026-04-22 12:39 39.69459 116.39608 2019 ft 159 kts 175°
2026-04-22 12:39 39.67306 116.39949 2006 ft 154 kts 175°
2026-04-22 12:39 39.66242 116.40117 2007 ft 154 kts 175°
2026-04-22 12:40 39.65178 116.40285 2007 ft 154 kts 175°
2026-04-22 12:40 39.64113 116.40454 2002 ft 155 kts 175°
2026-04-22 12:40 39.63042 116.40623 2007 ft 155 kts 175°
2026-04-22 12:40 39.61970 116.40792 2008 ft 155 kts 175°
2026-04-22 12:41 39.60899 116.40961 2006 ft 155 kts 175°
2026-04-22 12:41 39.59885 116.41122 1940 ft 141 kts 175°
2026-04-22 12:41 39.58929 116.41273 1805 ft 136 kts 175°
2026-04-22 12:41 39.57998 116.41420 1647 ft 134 kts 175°
2026-04-22 12:42 39.57075 116.41566 1474 ft 133 kts 174°
2026-04-22 12:42 39.56171 116.41708 1308 ft 132 kts 174°
2026-04-22 12:42 39.55258 116.41855 1122 ft 132 kts 174°
2026-04-22 12:42 39.54336 116.42004 954 ft 132 kts 174°
2026-04-22 12:43 39.53416 116.42141 788 ft 134 kts 174°
2026-04-22 12:43 39.52491 116.42304 604 ft 134 kts 173°
2026-04-22 12:43 39.51874 116.42397 477 ft 134 kts 174°
2026-04-22 12:43 39.50639 116.42582 278 ft 136 kts 174°
2026-04-22 12:44 39.50007 116.42679 145 ft 136 kts 173°
2026-04-22 12:44 39.48902 116.42858 97 ft 82 kts 173°
2026-04-22 12:44 39.48599 116.42904 99 ft 19 kts 173°
2026-04-22 12:44 39.48524 116.42904 100 ft 8 kts 186°
2026-04-22 12:45 39.48482 116.42894 100 ft 10 kts 193°
2026-04-22 12:45 39.48400 116.42860 101 ft 15 kts 198°
2026-04-22 12:45 39.48316 116.42798 96 ft 7 kts 240°
2026-04-22 12:45 39.48334 116.42731 89 ft 10 kts 341°
2026-04-22 12:46 39.48406 116.42718 91 ft 11 kts 354°
2026-04-22 12:46 39.48491 116.42706 90 ft 14 kts 353°
2026-04-22 12:46 39.48601 116.42689 92 ft 18 kts 353°
2026-04-22 12:46 39.48741 116.42666 89 ft 22 kts 354°
2026-04-22 12:47 39.48890 116.42642 90 ft 21 kts 353°
2026-04-22 12:47 39.49035 116.42623 91 ft 21 kts 352°
2026-04-22 12:47 39.49181 116.42599 89 ft 20 kts 353°
2026-04-22 12:47 39.49319 116.42576 90 ft 16 kts 353°
2026-04-22 12:48 39.49400 116.42550 90 ft 12 kts 335°
2026-04-22 12:48 39.49475 116.42493 89 ft 13 kts 327°
2026-04-22 12:48 39.49553 116.42431 87 ft 13 kts 335°
2026-04-22 12:48 39.49643 116.42409 89 ft 13 kts 353°
2026-04-22 12:49 39.49733 116.42395 88 ft 13 kts 353°
2026-04-22 12:49 39.49826 116.42381 89 ft 15 kts 354°
2026-04-22 12:49 39.49935 116.42364 89 ft 17 kts 353°
2026-04-22 12:49 39.50060 116.42345 88 ft 19 kts 354°
2026-04-22 12:50 39.50157 116.42329 87 ft 8 kts 353°
2026-04-22 12:50 39.50206 116.42290 89 ft 10 kts 297°
2026-04-22 12:50 39.50213 116.42225 87 ft 7 kts 285°
2026-04-22 12:50 39.50251 116.42198 86 ft 6 kts 351°
2026-04-22 12:51 39.50286 116.42164 86 ft 9 kts 296°
2026-04-22 12:51 39.50283 116.42073 88 ft 10 kts 263°
2026-04-22 12:51 39.50274 116.41982 87 ft 10 kts 263°
2026-04-22 12:51 39.50264 116.41892 86 ft 10 kts 262°
2026-04-22 12:52 39.50256 116.41804 88 ft 10 kts 263°
2026-04-22 12:52 39.50248 116.41718 89 ft 10 kts 263°
2026-04-22 12:52 39.50242 116.41652 87 ft 5 kts 262°
2026-04-22 12:52 39.50239 116.41606 85 ft 5 kts 274°
2026-04-22 12:53 39.50270 116.41580 86 ft 7 kts 345°
2026-04-22 12:53 39.50328 116.41570 89 ft 12 kts 355°
2026-04-22 12:53 39.50426 116.41555 85 ft 14 kts 353°
2026-04-22 12:53 39.50514 116.41540 86 ft 8 kts 353°
2026-04-22 12:54 39.50562 116.41512 85 ft 7 kts 324°
2026-04-22 12:54 39.50611 116.41502 86 ft 9 kts
2026-04-22 12:54 39.50686 116.41516 86 ft 10 kts
2026-04-22 12:54 39.50757 116.41529 88 ft 9 kts
2026-04-22 12:55 39.50775 116.41532 87 ft 0 kts